AirNav   Everest Fuels
 
 912 users online  

GA39 Hodges Airpark
Savannah, Georgia, USA

GOING TO SAVANNAH?


FAA INFORMATION EFFECTIVE 02 DECEMBER 2021

Location

FAA Identifier: GA39
Lat/Long: 31-59-03.7490N 081-14-46.4000W
31-59.062483N 081-14.773333W
31.9843747,-81.2462222
(estimated)
Elevation: 10 ft. / 3 m (estimated)
Variation: 04W (1985)
From city: 6 miles SW of SAVANNAH, GA
Time zone: UTC -5 (UTC -4 during Daylight Saving Time)
Zip code: 31419

Airport Operations

Airport use: Private use. Permission required prior to landing
Activation date: 01/1976
Control tower: no
ARTCC: JACKSONVILLE CENTER
FSS: MACON FLIGHT SERVICE STATION
Attendance: CONTINUOUS
Wind indicator: yes
Segmented circle: no

Airport Communications

WX ASOS at SAV (9 nm N): PHONE 912-966-0364

Nearby radio navigation aids

VOR radial/distance  VOR name  Freq  Var
SVNr255/5.6HUNTER VOR/DME111.6002W
SAVr200/10.0SAVANNAH VORTAC115.9506W

 
NDB name  Hdg/Dist  Freq  Var  ID
WASSA269/13.333504WSV ... ...-
MC INTOSH060/16.326304WMOQ -- --- --.-

Airport Services

Runway Information

Runway 12/30

Dimensions: 2640 x 60 ft. / 805 x 18 m
Surface: turf
RUNWAY 12  RUNWAY 30
Traffic pattern: rightright
Obstructions: 50 ft. trees50 ft. rr

Airport Ownership and Management from official FAA records

Ownership: Privately-owned
Owner: ROBERT J. HODGES
500 HINESVILLE ROAD
SAVANNAH, GA 31405
Phone 912-925-3664
Manager: ROBERT J. HODGES
500 HINESVILLE ROAD
SAVANNAH, GA 31405
Phone 912-925-3664
912-441-3790 CELL

Airport Operational Statistics

Aircraft based on the field: 21
Single engine airplanes: 18
Multi engine airplanes: 1
Ultralights: 2
    

Additional Remarks

FOR CD CTC SAVANNAH APCH AT 912-964-3205, WHEN APCH CLSD CTC JACKSONVILLE ARTCC AT 904-845-1592.

Instrument Procedures

There are no published instrument procedures at GA39.

Some nearby airports with instrument procedures:

KSVN - Hunter Army Airfield (5 nm E)
KSAV - Savannah/Hilton Head International Airport (9 nm N)
KLHW - Wright Army Airfield (Fort Stewart)/Midcoast Regional Airport (17 nm W)
KHXD - Hilton Head Airport (31 nm NE)
KCWV - Claxton-Evans County Airport (34 nm W)
 
Loc | Ops | Rwys | IFR | FBO | Links
Com | Nav | Svcs | Stats | Notes
Area around GA39 (Hodges Airpark)
 
Road maps at: MapQuest Bing Google
 
Aerial photo
WARNING: Photo may not be current or correct
Aerial photo of GA39 (Hodges Airpark)
Do you have a better or more recent aerial photo of Hodges Airpark that you would like to share? If so, please send us your photo.

 
Sectional chart

 
Airport distance calculator
Flying to Hodges Airpark? Find the distance to fly.

From to GA39

Sunrise and sunset
Times for 07-Dec-2021
 Local
(UTC-5)
 Zulu
(UTC)
Morning civil twilight06:4711:47
Sunrise07:1312:13
Sunset17:2022:20
Evening civil twilight17:4622:46

Current date and time
Zulu (UTC)  08-Dec-2021 02:07:46
Local (UTC-5)  07-Dec-2021 21:07:46
 
METAR
KSVN 
5nm E 
080111Z AUTO 03004KT 10SM BKN013 OVC040 15/12 A3008 RMK AO2 CIG 013V040 BKN V SCT SLP189 $
KSAV 
8nm N 
080153Z 11006KT 10SM OVC014 14/12 A3010 RMK AO2 SLP190 T01390122
KLHW 
18nm SW 
080156Z AUTO 00000KT 10SM OVC013 14/13 A3008 RMK AO2 DZE00 SLP189 P0000 T01430133 $
TAF
KSVN 
5nm E 
072320Z 0723/0903 07006KT 9999 OVC015 QNH3001INS BECMG 0808/0809 VRB06KT 8000 BR OVC009 QNH3000INS BECMG 0813/0814 19009KT 9999 NSW OVC010 QNH3000INS BECMG 0817/0818 23006KT 8000 -RA OVC015 QNH2993INS BECMG 0823/0824 VRB06KT 9999 NSW BKN030 OVC045 QNH3003INS TX21/0817Z TN10/0802Z
KSAV 
8nm N 
080024Z 0800/0824 09004KT P6SM SCT007 OVC015 TEMPO 0801/0804 5SM -RA BR FM080900 VRB03KT 5SM BR VCSH OVC007 FM081400 22009KT P6SM VCSH OVC007 FM081700 25009KT 4SM SHRA BR VCTS SCT006CB OVC007 FM082000 30008KT P6SM OVC006
NOTAMs
Click for the latest NOTAMs
NOTAMs are issued by the DoD/FAA and will open in a separate window not controlled by AirNav.

 

 
 

Would you like to see your business listed on this page?

 If your business provides an interesting product or service to pilots, flight crews, aircraft, or users of the Hodges Airpark, you should consider listing it here.  To start the listing process, click on the button below
 
Add a business
 

Other Pages about Hodges Airpark

Update a link
 
Copyright © AirNav, LLC. All rights reserved. Privacy Policy  Contact